If you wish to contribute or participate in the discussions about articles you are invited to join SKYbrary as a registered user

 Actions

Capitan FAP Victor Montes Arias International Airport

From SKYbrary Wiki

SPYL
Airport
ICAO: SPYL – IATA: TYL
Summary
Name Capitan FAP Victor Montes Arias International Airport
Region South America and Caribbean
Territory Peru PE.gif
Location Talara, Piura
Serving Talara
Elevation 85.954 m
282 ft
282 ft85.954 m
Type medium airport
Coordinates 4° 34' 35.90" S, 81° 15' 14.90" W
Runways
Designator Length Width Surface ROPS
17/35 2450 m8,038.058 ft
45 m147.638 ft
ASP /


METAR
Observation SPYL 192200Z 20008KT 9999 SCT030 24/20 Q1012 RMK TX28.2 BIRD HAZARD RWY 17/35 PP000
Station Talara
Date/Time 19 November 2019 22:00:00
Wind direction 200°
Wind speed 08 kts
Lowest cloud amount scattered clouds
Temperature 24°C
Dew point 20°C
Humidity 78%
QNH 1012 hPa
Weather condition n/a

airport serving Talara, Peru. It is an important airport in the Piura Region, used both as a relief airport for Cap. FAP Guillermo Concha Iberico International Airport and for faster access to the famous Los Órganos, Máncora and Punta Sal beaches.

Climatology

Warm Desert climate (Köppen climate classification BWh).

Maps

Terrain

Loading map...

Airport Layout

Loading map...


Accidents & Serious Incidents at or in vicinity of SPYL

None on SKYbrary